Date String (YYYY-MM-DD hh:mm:ss) UTC,Instrument flags,Ambient pressure (hPa),Sample flow (lpm),Bypass flow (lpm),Sample temperature (°C),Ambient temperature (°C),ASC tube jacket temperature (°C),LED temperature (°C),Box temperature (°C),Sample RH (%),Span deviation,Mass concentration (μg/m³),Mass concentration (μg/m³),Mass concentration (μg/m³)
DateTimeUTC,F1_M11,P_M11,Q1_M11,Q2_M11,T1_M11,T2_M11,T3_M11,T4_M11,T5_M11,U1_M11,ZSPAN_M11,X0_M11,X2_M11,X1_M11
2022-08-05 06:00:00,,0826.5,5.00,0.00,29.5,28.5,00.0,38.2,31.5,24.6,0002.2,0017.67,0009.09,0007.50
2022-08-05 06:01:00,,0826.5,5.00,0.00,29.5,28.6,00.0,38.2,31.5,24.7,0002.0,0019.22,0009.15,0007.55
2022-08-05 06:02:00,,0826.5,5.00,0.00,29.5,28.0,00.0,38.2,31.4,24.7,0001.8,0019.43,0009.23,0007.60
2022-08-05 06:03:00,,0826.5,5.01,0.00,29.4,27.3,00.0,38.1,31.2,24.4,0001.4,0020.06,0009.36,0007.65
2022-08-05 06:04:00,,0826.5,4.99,0.00,29.4,27.0,00.0,38.1,31.1,24.4,0001.3,0019.57,0009.48,0007.70
2022-08-05 06:05:00,,0826.5,5.00,0.00,29.3,27.0,00.0,38.1,31.0,24.2,0001.3,0019.71,0009.60,0007.75
2022-08-05 06:06:00,,0826.5,5.01,0.00,29.3,27.1,00.0,38.1,31.1,23.9,0001.2,0019.67,0009.59,0007.78
2022-08-05 06:07:00,,0826.5,4.99,0.00,29.3,27.3,00.0,38.1,31.1,23.7,0001.5,0019.47,0009.63,0007.80
2022-08-05 06:08:00,,0826.5,5.01,0.00,29.3,27.5,00.0,38.1,31.1,23.5,0001.3,0019.10,0009.68,0007.79
2022-08-05 06:09:00,,0826.5,5.00,0.00,29.3,27.7,00.0,38.1,31.2,23.7,0001.5,0018.93,0009.68,0007.79
2022-08-05 06:10:00,,0826.4,5.00,0.00,29.3,27.8,00.0,38.1,31.2,24.0,0001.1,0018.99,0009.71,0007.80
2022-08-05 06:11:00,,0826.5,5.00,0.00,29.3,28.0,00.0,38.1,31.3,23.7,0001.0,0018.81,0009.67,0007.79
2022-08-05 06:12:00,,0826.5,5.01,0.00,29.3,28.1,00.0,38.1,31.3,23.7,0000.9,0017.36,0009.64,0007.76
2022-08-05 06:13:00,,0826.5,5.00,0.00,29.4,28.2,00.0,38.1,31.4,23.8,0000.6,0017.36,0009.59,0007.74
2022-08-05 06:14:00,,0826.5,5.00,0.00,29.4,28.4,00.0,38.1,31.4,23.6,0000.7,0017.33,0009.52,0007.71
2022-08-05 06:15:00,,0826.5,5.01,0.00,29.5,28.5,00.0,38.2,31.5,23.3,0000.8,0017.49,0009.43,0007.69
2022-08-05 06:16:00,,0826.5,4.99,0.00,29.5,28.6,00.0,38.2,31.5,23.3,0001.3,0017.29,0009.34,0007.65
2022-08-05 06:17:00,,0826.5,5.00,0.00,29.5,28.6,00.0,38.2,31.6,23.2,0001.9,0018.01,0009.31,0007.63
2022-08-05 06:18:00,,0826.5,5.02,0.00,29.6,28.4,00.0,38.2,31.5,23.1,0001.6,0018.25,0009.30,0007.62
2022-08-05 06:19:00,,0826.5,5.00,0.00,29.5,27.6,00.0,38.2,31.3,23.2,0001.2,0018.37,0009.31,0007.63
2022-08-05 06:20:00,,0826.4,4.99,0.00,29.5,27.0,00.0,38.2,31.2,23.1,0001.1,0018.55,0009.28,0007.63
2022-08-05 06:21:00,,0826.5,5.01,0.00,29.4,27.0,00.0,38.1,31.1,23.2,0001.1,0018.66,0009.28,0007.61
2022-08-05 06:22:00,,0826.4,5.01,0.00,29.3,27.0,00.0,38.1,31.0,23.9,0001.3,0018.71,0009.25,0007.59
2022-08-05 06:23:00,,0826.4,4.99,0.00,29.3,27.2,00.0,38.1,31.0,24.0,0001.1,0018.90,0009.34,0007.59
2022-08-05 06:24:00,,0826.4,5.01,0.00,29.3,27.4,00.0,38.1,31.1,24.0,0001.7,0018.70,0009.35,0007.57
2022-08-05 06:25:00,,0826.4,5.00,0.00,29.3,27.5,00.0,38.1,31.2,24.0,0002.0,0017.77,0009.32,0007.57
2022-08-05 06:26:00,,0826.3,5.00,0.00,29.3,27.7,00.0,38.1,31.2,24.0,0002.2,0016.85,0009.38,0007.57
2022-08-05 06:27:00,,0826.3,5.00,0.00,29.3,27.9,00.0,38.1,31.2,24.0,0001.7,0016.66,0009.39,0007.59
2022-08-05 06:28:00,,0826.3,5.00,0.00,29.3,28.0,00.0,38.1,31.3,24.0,0002.1,0016.19,0009.45,0007.62
2022-08-05 06:29:00,,0826.2,5.00,0.00,29.4,28.2,00.0,38.1,31.3,24.0,0002.4,0016.07,0009.49,0007.64
2022-08-05 06:30:00,,0826.3,5.01,0.00,29.4,28.3,00.0,38.1,31.4,24.0,0002.8,0017.02,0009.49,0007.66
2022-08-05 06:31:00,,0826.2,5.01,0.00,29.4,28.4,00.0,38.2,31.4,24.1,0002.9,0017.45,0009.58,0007.69
2022-08-05 06:32:00,,0826.2,5.00,0.00,29.5,28.5,00.0,38.2,31.5,24.3,0003.0,0017.71,0009.69,0007.75
2022-08-05 06:33:00,,0826.2,5.01,0.00,29.5,28.6,00.0,38.2,31.5,24.3,0002.9,0019.20,0009.78,0007.78
2022-08-05 06:34:00,,0826.2,5.01,0.00,29.6,28.6,00.0,38.2,31.6,24.4,0003.1,0019.82,0009.77,0007.80
2022-08-05 06:35:00,,0826.3,4.99,0.00,29.5,28.0,00.0,38.2,31.4,24.5,0003.1,0019.88,0009.76,0007.82
2022-08-05 06:36:00,,0826.4,5.02,0.00,29.5,27.2,00.0,38.2,31.2,24.9,0002.9,0020.30,0009.85,0007.85
2022-08-05 06:37:00,,0826.5,4.99,0.00,29.4,26.9,00.0,38.2,31.1,25.2,0002.8,0020.59,0009.86,0007.88
2022-08-05 06:38:00,,0826.5,5.01,0.00,29.3,26.9,00.0,38.1,31.1,25.3,0003.0,0020.67,0009.88,0007.90
2022-08-05 06:39:00,,0826.5,4.99,0.00,29.3,27.0,00.0,38.1,31.0,24.9,0002.8,0021.58,0009.90,0007.91
2022-08-05 06:40:00,,0826.5,5.01,0.00,29.3,27.2,00.0,38.1,31.1,25.1,0002.7,0022.20,0009.88,0007.92
2022-08-05 06:41:00,,0826.5,4.99,0.00,29.3,27.4,00.0,38.1,31.1,25.1,0002.7,0022.86,0010.00,0007.96
2022-08-05 06:42:00,,0826.5,4.99,0.00,29.3,27.6,00.0,38.1,31.2,25.3,0002.8,0022.56,0009.96,0007.98
2022-08-05 06:43:00,,0826.5,5.01,0.00,29.3,27.8,00.0,38.1,31.2,25.3,0003.0,0022.09,0009.89,0007.97
2022-08-05 06:44:00,,0826.5,5.00,0.00,29.3,27.9,00.0,38.1,31.3,25.3,0003.0,0021.58,0009.89,0007.99
2022-08-05 06:45:00,,0826.5,5.00,0.00,29.3,28.1,00.0,38.1,31.3,25.2,0002.9,0021.78,0009.94,0008.03
2022-08-05 06:46:00,,0826.5,5.00,0.00,29.4,28.2,00.0,38.1,31.4,25.2,0002.6,0022.82,0010.01,0008.06
2022-08-05 06:47:00,,0826.5,5.00,0.00,29.4,28.3,00.0,38.1,31.4,25.0,0002.8,0023.09,0010.03,0008.08
2022-08-05 06:48:00,,0826.5,5.00,0.00,29.4,28.4,00.0,38.2,31.5,25.0,0002.7,0023.96,0010.09,0008.11
2022-08-05 06:49:00,,0826.6,5.00,0.00,29.5,28.5,00.0,38.2,31.5,25.0,0002.3,0024.19,0010.13,0008.14
2022-08-05 06:50:00,,0826.6,4.99,0.00,29.5,28.6,00.0,38.2,31.5,25.0,0002.2,0023.34,0010.12,0008.15
2022-08-05 06:51:00,,0826.6,5.00,0.00,29.6,28.6,00.0,38.2,31.6,25.0,0002.4,0022.67,0010.13,0008.18
2022-08-05 06:52:00,,0826.6,5.00,0.00,29.6,28.2,00.0,38.2,31.5,24.9,0002.5,0021.16,0010.05,0008.18
2022-08-05 06:53:00,,0826.6,5.01,0.00,29.5,27.6,00.0,38.2,31.4,24.9,0002.6,0021.51,0010.07,0008.20
2022-08-05 06:54:00,,0826.6,4.99,0.00,29.5,27.5,00.0,38.2,31.3,25.1,0002.8,0021.54,0010.10,0008.22
2022-08-05 06:55:00,,0826.6,5.02,0.00,29.4,27.5,00.0,38.2,31.2,25.4,0002.5,0020.73,0010.11,0008.26
2022-08-05 06:56:00,,0826.6,4.99,0.00,29.4,27.6,00.0,38.2,31.3,25.3,0002.7,0020.51,0010.16,0008.28
2022-08-05 06:57:00,,0826.7,5.00,0.00,29.4,27.8,00.0,38.2,31.3,25.3,0002.6,0019.69,0010.15,0008.28
2022-08-05 06:58:00,,0826.7,5.01,0.00,29.4,27.9,00.0,38.2,31.4,25.4,0002.4,0019.93,0010.18,0008.26
2022-08-05 06:59:00,,0826.7,5.00,0.00,29.5,28.1,00.0,38.2,31.4,25.6,0002.7,0019.04,0010.09,0008.23
